CDT,Max TemperatureF,Mean TemperatureF,Min TemperatureF,Max Dew PointF,MeanDew PointF,Min DewpointF,Max Humidity, Mean Humidity, Min Humidity, Max Sea Level PressureIn, Mean Sea Level PressureIn, Min Sea Level PressureIn, Max VisibilityMiles, Mean VisibilityMiles, Min VisibilityMiles, Max Wind SpeedMPH, Mean Wind SpeedMPH, Max Gust SpeedMPH,PrecipitationIn, CloudCover, Events, WindDirDegrees
2013-5-1,78,70,63,72,67,62,100,91,74,29.93,29.88,29.84,10,7,0,22,10,33,3.84,7,Fog-Rain-Thunderstorm,87
2013-5-2,73,68,64,66,65,63,100,91,73,29.98,29.92,29.86,10,9,1,16,8,23,0.45,7,Rain-Thunderstorm,79
2013-5-3,75,62,49,66,58,46,100,89,68,30.00,29.91,29.85,10,9,5,21,11,29,0.10,8,Rain,358
2013-5-4,70,57,44,50,41,35,88,57,30,30.02,29.96,29.89,10,10,10,16,11,24,0.00,0,,329
2013-5-5,67,60,54,57,47,40,80,57,41,30.04,29.93,29.86,10,10,10,16,10,24,0.00,1,,302
2013-5-6,71,60,48,55,49,44,84,62,44,30.04,29.99,29.93,10,10,10,24,7,32,0.00,3,,264
2013-5-7,75,66,57,66,58,54,93,73,52,30.07,30.02,29.98,10,10,10,16,4,,0.00,2,,251
2013-5-8,79,68,59,66,62,58,100,89,51,30.13,30.05,30.01,10,5,0,15,2,,0.00,0,Fog,233
2013-5-9,77,72,67,67,66,64,88,78,68,30.16,30.11,30.07,10,10,10,12,8,,0.00,1,,181
2013-5-10,73,69,64,70,66,63,95,88,74,30.15,30.03,29.93,10,8,1,23,10,32,0.77,4,Rain-Thunderstorm,172
2013-5-11,74,68,63,68,65,62,100,91,76,30.08,30.02,29.96,10,8,0,14,4,,0.38,5,Fog-Rain-Thunderstorm,163
2013-5-12,78,70,62,68,60,55,100,70,49,30.14,30.09,30.04,10,10,10,13,4,,0.00,3,,12
2013-5-13,76,65,54,57,50,39,82,59,30,30.30,30.23,30.15,10,10,10,12,7,,0.00,0,,354
2013-5-14,78,68,58,62,57,50,87,65,38,30.30,30.24,30.18,10,10,10,13,4,,0.00,0,,204
2013-5-15,79,70,63,64,60,51,91,66,43,30.23,30.16,30.06,10,10,10,12,6,,0.00,2,,191
2013-5-16,79,74,71,70,68,63,88,79,69,30.07,30.02,29.98,10,10,10,14,9,21,0.00,4,Rain,166
2013-5-17,81,76,73,73,72,70,94,87,77,30.08,30.03,29.98,10,10,10,16,11,22,0.00,5,,173
2013-5-18,82,78,75,73,73,71,94,86,69,30.10,30.04,30.01,10,10,10,15,11,20,0.00,4,,202
2013-5-19,83,80,76,75,73,72,89,85,73,30.06,30.02,29.99,10,10,10,13,10,,0.00,6,,170
2013-5-20,84,80,75,74,73,72,89,82,70,30.05,30.01,29.97,10,10,10,13,8,,0.00,4,,170
2013-5-21,84,80,75,73,72,70,89,77,66,30.01,29.95,29.88,10,10,10,15,9,20,0.00,4,,172
2013-5-22,80,74,68,72,69,66,94,83,64,30.07,29.96,29.91,10,9,1,13,7,24,0.51,5,Rain-Thunderstorm,193
2013-5-23,85,77,69,74,71,68,100,79,61,30.07,30.02,29.96,10,10,9,13,4,,0.00,1,,234
2013-5-24,88,80,72,74,68,58,91,68,49,30.17,30.11,30.04,10,10,10,12,4,,0.00,1,,41
2013-5-25,82,73,64,66,57,50,78,55,39,30.25,30.19,30.15,10,10,10,14,9,,0.00,0,,112
2013-5-26,83,74,64,71,64,59,90,68,45,30.21,30.17,30.13,10,10,10,10,5,,0.00,3,,122
2013-5-27,84,80,76,72,68,62,83,69,47,30.17,30.12,30.08,10,10,10,14,9,21,0.00,4,,159
2013-5-28,83,78,74,72,67,62,80,68,55,30.11,30.07,30.04,10,10,10,13,8,20,0.00,1,,150
2013-5-29,85,80,77,75,72,70,84,78,66,30.06,30.02,29.99,10,10,4,21,11,28,0.05,6,Rain,136
2013-5-30,84,80,77,73,72,71,89,78,66,30.07,30.01,29.99,10,10,5,21,12,28,0.05,6,Rain,133
2013-5-31,85,82,77,75,73,72,84,79,66,30.05,30.01,29.97,10,10,10,17,12,23,0.00,6,Rain,143